Regional Weather Roundup
Issued by NWS

Home | Current Version | Previous Version | Graphics & Text | Print | Product List | Glossary On
Versions: 1 2 3 4 5 6 7 8 9 10 11 12 13 14 15 16 17 18 19 20 21 22 23 24 25 26 27 28 29 30 31 32 33 34 35 36 37 38 39 40 41 42 43 44 45 46 47 48
000
ASUS45 KBOI 041310
RWRID

IDAHO REGIONAL WEATHER ROUNDUP
NATIONAL WEATHER SERVICE BOISE ID
700 AM MDT SAT JUL 04 2015

NOTE: "FAIR" INDICATES FEW OR NO CLOUDS BELOW 12000 FEET
WITH NO SIGNIFICANT WEATHER AND/OR OBSTRUCTIONS TO VISIBILITY

IDZ012-014-041400-
SOUTHWEST IDAHO


CITY           SKY/WX    TMP DP  RH WIND       PRES   REMARKS
BOISE          CLEAR     71  38  29 S6        29.85R
CALDWELL       CLEAR     66  46  48 SE7       29.85R
MOUNTAIN HOME  PTCLDY    72  38  29 W5        29.85R
$$

IDZ016-017-041400-
SOUTHCENTRAL IDAHO


CITY           SKY/WX    TMP DP  RH WIND       PRES   REMARKS
BURLEY         PTCLDY    65  51  60 CALM      29.93R
JEROME         PTCLDY    73  49  42 S5        29.94R
TWIN FALLS     PTCLDY    81  47  30 S9        29.92R
$$

IDZ019>023-041400-
SOUTHEAST IDAHO


CITY           SKY/WX    TMP DP  RH WIND       PRES   REMARKS
IDAHO FALLS    PTCLDY    57  51  80 CALM      29.98R
POCATELLO      CLEAR     67  47  48 S8        29.97R
REXBURG        SUNNY     58  51  78 NE5       30.00R
$$

IDZ006-010-011-018-031-032-041400-
CENTRAL IDAHO MOUNTAINS


CITY           SKY/WX    TMP DP  RH WIND       PRES   REMARKS
MCCALL         PTCLDY    54  43  66 CALM      30.01S
HAILEY         PTCLDY    59  36  41 NW9G17    30.05S
STANLEY          N/A     41  32  70 CALM      30.17R
SALMON         PTCLDY    54  46  76 CALM      30.00R
CHALLIS        PTCLDY    58  37  45 CALM      30.05R
$$

IDZ002-004-006-007-026-041400-
NORTHERN IDAHO


CITY           SKY/WX    TMP DP  RH WIND       PRES   REMARKS
LEWISTON       CLEAR     70  47  43 CALM      29.81R
LOWELL           N/A     60  53  77 CALM      29.89R
COEUR D`ALENE  CLEAR     70  54  56 S12       29.82R
MULLAN PASS    CLEAR     66  32  28 VRB5      30.06S
$$



USA.gov is the U.S. government's official web portal to all federal, state and local government web resources and services.